Location: Powder Track
(41.8531°N, 72.3584°W)
Time: 23:08:31
(UTC+00:00)

X-37B - Pass Details

Date: 23 June 2021
Orbit: 383 x 392 km, 45.0° (Epoch: 01 July)

Event Time Altitude Azimuth Distance (km) Brightness Sun altitude
Rises 03:38:44 0° 264° (W) 2,252 4.6 -22.6°
Reaches altitude 10° 03:40:49 10° 269° (W) 1,400 3.6 -22.7°
Enters shadow 03:41:05 12° 270° (W) 1,292 3.4 -22.7°
